Time,TemperatureF,DewpointF,PressureIn,WindDirection,WindDirectionDegrees,WindSpeedMPH,WindSpeedGustMPH,Humidity,HourlyPrecipIn,Conditions,Clouds,dailyrainin,SoftwareType,DateUTC
2013-05-21 00:04:00,41.9,34.2,29.50,ENE,68,0.0,0.0,74,0.00,RA,,0.00,WeatherDisplay:10.37,2013-05-21 06:04:00,
2013-05-21 00:09:00,41.7,34.0,29.50,NE,45,0.0,0.0,74,0.00,CLR,,0.00,WeatherDisplay:10.37,2013-05-21 06:09:00,
2013-05-21 00:14:00,41.5,33.9,29.50,NNW,338,0.0,0.0,74,0.00,CLR,,0.00,WeatherDisplay:10.37,2013-05-21 06:14:00,
2013-05-21 00:19:00,41.4,33.7,29.50,North,0,0.0,0.0,74,0.00,CLR,,0.00,WeatherDisplay:10.37,2013-05-21 06:19:00,
2013-05-21 00:25:00,41.4,33.7,29.49,NE,45,0.0,0.0,74,0.00,CLR,,0.00,WeatherDisplay:10.37,2013-05-21 06:25:00,
2013-05-21 00:30:00,41.2,33.9,29.49,North,0,0.0,0.0,75,0.00,CLR,,0.00,WeatherDisplay:10.37,2013-05-21 06:30:00,
2013-05-21 00:35:00,40.8,33.5,29.49,NE,45,0.0,0.0,75,0.00,CLR,,0.00,WeatherDisplay:10.37,2013-05-21 06:35:00,
2013-05-21 00:40:00,40.6,33.3,29.49,NE,45,0.0,0.0,75,0.00,CLR,,0.00,WeatherDisplay:10.37,2013-05-21 06:40:00,
2013-05-21 00:45:00,40.6,33.3,29.49,ENE,68,0.0,0.0,75,0.00,CLR,,0.00,WeatherDisplay:10.37,2013-05-21 06:45:00,
2013-05-21 00:50:00,40.5,33.2,29.49,NE,45,0.0,0.0,75,0.00,CLR,,0.00,WeatherDisplay:10.37,2013-05-21 06:50:00,
2013-05-21 00:55:00,40.5,33.2,29.49,North,0,0.0,0.0,75,0.00,CLR,,0.00,WeatherDisplay:10.37,2013-05-21 06:55:00,
2013-05-21 01:00:00,40.1,32.8,29.49,North,0,0.0,0.0,75,0.00,CLR,,0.00,WeatherDisplay:10.37,2013-05-21 07:00:00,
2013-05-21 01:05:00,39.9,32.6,29.49,North,0,0.0,0.0,75,0.00,CLR,,0.00,WeatherDisplay:10.37,2013-05-21 07:05:00,
2013-05-21 01:10:00,39.9,33.0,29.49,NE,45,0.0,0.0,76,0.00,CLR,,0.00,WeatherDisplay:10.37,2013-05-21 07:10:00,
2013-05-21 01:15:00,39.9,33.0,29.49,NE,45,0.0,0.0,76,0.00,CLR,,0.00,WeatherDisplay:10.37,2013-05-21 07:15:00,
2013-05-21 01:20:00,39.7,32.8,29.49,NNW,338,0.0,0.0,76,0.00,CLR,,0.00,WeatherDisplay:10.37,2013-05-21 07:20:00,
2013-05-21 01:25:00,39.7,32.8,29.48,ENE,68,0.0,0.0,76,0.00,CLR,,0.00,WeatherDisplay:10.37,2013-05-21 07:25:00,
2013-05-21 01:30:00,39.6,32.6,29.48,NE,45,0.0,0.0,76,0.00,CLR,,0.00,WeatherDisplay:10.37,2013-05-21 07:30:00,
2013-05-21 01:35:00,39.4,32.4,29.48,NE,45,0.0,0.0,76,0.00,CLR,,0.00,WeatherDisplay:10.37,2013-05-21 07:35:00,
2013-05-21 01:40:00,39.2,32.3,29.48,West,270,0.0,0.0,76,0.00,CLR,,0.00,WeatherDisplay:10.37,2013-05-21 07:40:00,
2013-05-21 01:45:00,39.2,32.3,29.48,SE,135,0.0,0.0,76,0.00,CLR,,0.00,WeatherDisplay:10.37,2013-05-21 07:45:00,
2013-05-21 01:50:00,39.0,32.1,29.48,SE,135,0.0,0.0,76,0.00,CLR,,0.00,WeatherDisplay:10.37,2013-05-21 07:50:00,
2013-05-21 01:55:00,39.0,32.1,29.48,NNW,338,0.0,0.0,76,0.00,CLR,,0.00,WeatherDisplay:10.37,2013-05-21 07:55:00,
2013-05-21 02:00:00,38.7,31.7,29.47,NNE,22,0.0,0.0,76,0.00,CLR,,0.00,WeatherDisplay:10.37,2013-05-21 08:00:00,
2013-05-21 02:05:00,38.5,31.6,29.47,ENE,68,0.0,0.0,76,0.00,CLR,,0.00,WeatherDisplay:10.37,2013-05-21 08:05:00,
2013-05-21 02:10:00,38.5,31.6,29.47,ENE,68,0.0,0.0,76,0.00,CLR,,0.00,WeatherDisplay:10.37,2013-05-21 08:10:00,
2013-05-21 02:15:00,38.3,31.4,29.47,NW,315,0.0,0.0,76,0.00,CLR,,0.00,WeatherDisplay:10.37,2013-05-21 08:15:00,
2013-05-21 02:20:00,38.3,31.7,29.47,NNE,22,0.0,0.0,77,0.00,CLR,,0.00,WeatherDisplay:10.37,2013-05-21 08:20:00,
2013-05-21 02:25:00,37.9,31.4,29.47,North,0,0.0,0.0,77,0.00,CLR,,0.00,WeatherDisplay:10.37,2013-05-21 08:25:00,
2013-05-21 02:30:00,37.9,31.4,29.47,NE,45,0.0,0.0,77,0.00,CLR,,0.00,WeatherDisplay:10.37,2013-05-21 08:30:00,
2013-05-21 02:35:00,37.8,31.2,29.47,North,0,0.0,0.0,77,0.00,CLR,,0.00,WeatherDisplay:10.37,2013-05-21 08:35:00,
2013-05-21 02:40:00,37.6,31.0,29.47,NE,45,0.0,0.0,77,0.00,CLR,,0.00,WeatherDisplay:10.37,2013-05-21 08:40:00,
2013-05-21 02:45:00,37.6,31.0,29.47,NE,45,0.0,0.0,77,0.00,CLR,,0.00,WeatherDisplay:10.37,2013-05-21 08:45:00,
2013-05-21 02:50:00,37.4,30.8,29.47,North,0,0.0,0.0,77,0.00,CLR,,0.00,WeatherDisplay:10.37,2013-05-21 08:50:00,
2013-05-21 02:55:00,37.6,31.0,29.47,NE,45,0.0,0.0,77,0.00,CLR,,0.00,WeatherDisplay:10.37,2013-05-21 08:55:00,
2013-05-21 03:00:00,37.2,30.7,29.46,NNE,22,0.0,0.0,77,0.00,CLR,,0.00,WeatherDisplay:10.37,2013-05-21 09:00:00,
2013-05-21 03:05:00,37.0,30.5,29.46,SW,225,0.0,0.0,77,0.00,CLR,,0.00,WeatherDisplay:10.37,2013-05-21 09:05:00,
2013-05-21 03:10:00,37.2,30.7,29.46,East,90,0.0,0.0,77,0.00,CLR,,0.00,WeatherDisplay:10.37,2013-05-21 09:10:00,
2013-05-21 03:15:00,37.0,30.5,29.46,ENE,68,0.0,0.0,77,0.00,CLR,,0.00,WeatherDisplay:10.37,2013-05-21 09:15:00,
2013-05-21 03:20:00,36.9,30.3,29.46,ENE,68,0.0,0.0,77,0.00,CLR,,0.00,WeatherDisplay:10.37,2013-05-21 09:20:00,
2013-05-21 03:25:00,36.9,30.6,29.46,ENE,68,0.0,0.0,78,0.00,CLR,,0.00,WeatherDisplay:10.37,2013-05-21 09:25:00,
2013-05-21 03:30:00,36.7,30.5,29.46,ENE,68,0.0,0.0,78,0.00,CLR,,0.00,WeatherDisplay:10.37,2013-05-21 09:30:00,
2013-05-21 03:35:00,36.5,30.3,29.46,North,0,0.0,0.0,78,0.00,CLR,,0.00,WeatherDisplay:10.37,2013-05-21 09:35:00,
2013-05-21 03:40:00,36.5,30.3,29.45,ENE,68,0.0,0.0,78,0.00,CLR,,0.00,WeatherDisplay:10.37,2013-05-21 09:40:00,
2013-05-21 03:45:00,36.5,30.3,29.45,North,0,0.0,0.0,78,0.00,CLR,,0.00,WeatherDisplay:10.37,2013-05-21 09:45:00,
2013-05-21 03:50:00,36.3,30.1,29.45,ENE,68,0.0,0.0,78,0.00,CLR,,0.00,WeatherDisplay:10.37,2013-05-21 09:50:00,
2013-05-21 03:55:00,36.1,29.9,29.45,North,0,0.0,0.0,78,0.00,CLR,,0.00,WeatherDisplay:10.37,2013-05-21 09:55:00,
2013-05-21 04:00:00,36.1,29.9,29.45,NNW,338,0.0,0.0,78,0.00,CLR,,0.00,WeatherDisplay:10.37,2013-05-21 10:00:00,
2013-05-21 04:05:00,36.1,29.9,29.45,NNE,22,0.0,0.0,78,0.00,CLR,,0.00,WeatherDisplay:10.37,2013-05-21 10:05:00,
2013-05-21 04:10:00,36.0,29.8,29.45,NNW,338,0.0,0.0,78,0.00,CLR,,0.00,WeatherDisplay:10.37,2013-05-21 10:10:00,
2013-05-21 04:15:00,35.8,29.6,29.45,NNW,338,0.0,0.0,78,0.00,CLR,,0.00,WeatherDisplay:10.37,2013-05-21 10:15:00,
2013-05-21 04:20:00,35.6,29.4,29.46,North,0,0.0,0.0,78,0.00,CLR,,0.00,WeatherDisplay:10.37,2013-05-21 10:20:00,
2013-05-21 04:25:00,35.8,29.6,29.46,NE,45,0.0,0.0,78,0.00,CLR,,0.00,WeatherDisplay:10.37,2013-05-21 10:25:00,
2013-05-21 04:30:00,35.4,29.2,29.46,North,0,0.0,0.0,78,0.00,CLR,,0.00,WeatherDisplay:10.37,2013-05-21 10:30:00,
2013-05-21 04:35:00,35.4,29.2,29.46,NNW,338,0.0,0.0,78,0.00,CLR,,0.00,WeatherDisplay:10.37,2013-05-21 10:35:00,
2013-05-21 04:40:00,35.4,29.2,29.45,NNE,22,0.0,0.0,78,0.00,CLR,,0.00,WeatherDisplay:10.37,2013-05-21 10:40:00,
2013-05-21 04:45:00,35.4,29.2,29.45,NNE,22,0.0,0.0,78,0.00,CLR,,0.00,WeatherDisplay:10.37,2013-05-21 10:45:00,
2013-05-21 04:50:00,35.1,28.9,29.45,NNE,22,0.0,0.0,78,0.00,CLR,,0.00,WeatherDisplay:10.37,2013-05-21 10:50:00,
2013-05-21 04:55:00,35.1,28.9,29.45,North,0,0.0,0.0,78,0.00,CLR,,0.00,WeatherDisplay:10.37,2013-05-21 10:55:00,
2013-05-21 05:00:00,35.1,28.9,29.45,NE,45,0.0,0.0,78,0.00,CLR,,0.00,WeatherDisplay:10.37,2013-05-21 11:00:00,
2013-05-21 05:05:00,34.9,28.7,29.45,North,0,0.0,0.0,78,0.00,CLR,,0.00,WeatherDisplay:10.37,2013-05-21 11:05:00,
2013-05-21 05:10:00,35.1,28.9,29.45,North,0,0.0,0.0,78,0.00,CLR,,0.00,WeatherDisplay:10.37,2013-05-21 11:10:00,
2013-05-21 05:15:00,35.1,29.2,29.45,North,0,0.0,0.0,79,0.00,CLR,,0.00,WeatherDisplay:10.37,2013-05-21 11:15:00,
2013-05-21 05:20:00,34.9,29.0,29.46,North,0,0.0,0.0,79,0.00,CLR,,0.00,WeatherDisplay:10.37,2013-05-21 11:20:00,
2013-05-21 05:25:00,34.7,28.9,29.46,NW,315,0.0,0.0,79,0.00,CLR,,0.00,WeatherDisplay:10.37,2013-05-21 11:25:00,
2013-05-21 05:30:00,34.7,28.9,29.46,North,0,0.0,0.0,79,0.00,CLR,,0.00,WeatherDisplay:10.37,2013-05-21 11:30:00,
2013-05-21 05:35:00,34.7,28.9,29.46,North,0,0.0,0.0,79,0.00,CLR,,0.00,WeatherDisplay:10.37,2013-05-21 11:35:00,
2013-05-21 05:40:00,34.7,28.9,29.46,North,0,0.0,0.0,79,0.00,CLR,,0.00,WeatherDisplay:10.37,2013-05-21 11:40:00,
2013-05-21 05:45:00,34.7,28.9,29.46,North,0,0.0,0.0,79,0.00,CLR,,0.00,WeatherDisplay:10.37,2013-05-21 11:45:00,
2013-05-21 05:50:00,34.7,28.9,29.46,WNW,292,0.0,0.0,79,0.00,CLR,,0.00,WeatherDisplay:10.37,2013-05-21 11:50:00,
2013-05-21 05:55:00,34.5,28.7,29.46,West,270,0.0,0.0,79,0.00,CLR,,0.00,WeatherDisplay:10.37,2013-05-21 11:55:00,
2013-05-21 06:00:00,34.3,28.5,29.45,ENE,68,0.0,0.0,79,0.00,CLR,,0.00,WeatherDisplay:10.37,2013-05-21 12:00:00,
2013-05-21 06:05:00,34.5,28.7,29.45,ENE,68,0.0,0.0,79,0.00,CLR,,0.00,WeatherDisplay:10.37,2013-05-21 12:05:00,
2013-05-21 06:10:00,34.5,28.7,29.45,ENE,68,0.0,0.0,79,0.00,CLR,,0.00,WeatherDisplay:10.37,2013-05-21 12:10:00,
2013-05-21 06:15:00,34.2,28.3,29.45,North,0,0.0,0.0,79,0.00,CLR,,0.00,WeatherDisplay:10.37,2013-05-21 12:15:00,
2013-05-21 06:20:00,34.3,28.5,29.45,NNE,22,0.0,0.0,79,0.00,CLR,,0.00,WeatherDisplay:10.37,2013-05-21 12:20:00,
2013-05-21 06:25:00,34.2,28.3,29.45,NNW,338,0.0,0.0,79,0.00,CLR,,0.00,WeatherDisplay:10.37,2013-05-21 12:25:00,
2013-05-21 06:30:00,34.3,28.5,29.45,NE,45,0.0,0.0,79,0.00,CLR,,0.00,WeatherDisplay:10.37,2013-05-21 12:30:00,
2013-05-21 06:35:00,34.7,28.9,29.45,NNE,22,0.0,0.0,79,0.00,CLR,,0.00,WeatherDisplay:10.37,2013-05-21 12:35:00,
2013-05-21 06:40:00,34.7,28.9,29.45,North,0,0.0,0.0,79,0.00,CLR,,0.00,WeatherDisplay:10.37,2013-05-21 12:40:00,
2013-05-21 06:45:00,34.7,29.2,29.45,NNW,338,0.0,0.0,80,0.00,CLR,,0.00,WeatherDisplay:10.37,2013-05-21 12:45:00,
2013-05-21 06:50:00,34.7,29.2,29.45,NNW,338,0.0,0.0,80,0.00,CLR,,0.00,WeatherDisplay:10.37,2013-05-21 12:50:00,
2013-05-21 06:55:00,34.9,29.3,29.45,North,0,0.0,0.0,80,0.00,CLR,,0.00,WeatherDisplay:10.37,2013-05-21 12:55:00,
2013-05-21 07:00:00,34.9,29.3,29.45,North,0,0.0,0.0,80,0.00,CLR,,0.00,WeatherDisplay:10.37,2013-05-21 13:00:00,
2013-05-21 07:05:00,35.2,29.7,29.45,NNW,338,0.0,0.0,80,0.00,CLR,,0.00,WeatherDisplay:10.37,2013-05-21 13:05:00,
2013-05-21 07:10:00,35.4,29.9,29.45,NNW,338,0.0,0.0,80,0.00,CLR,,0.00,WeatherDisplay:10.37,2013-05-21 13:10:00,
2013-05-21 07:15:00,35.4,29.9,29.45,NNW,338,0.0,0.0,80,0.00,CLR,,0.00,WeatherDisplay:10.37,2013-05-21 13:15:00,
2013-05-21 07:20:00,35.6,30.0,29.45,NNW,338,0.0,0.0,80,0.00,CLR,,0.00,WeatherDisplay:10.37,2013-05-21 13:20:00,
2013-05-21 07:25:00,36.1,30.6,29.45,NNW,338,0.0,0.0,80,0.00,CLR,,0.00,WeatherDisplay:10.37,2013-05-21 13:25:00,
2013-05-21 07:30:00,36.1,30.6,29.45,NNW,338,0.0,0.0,80,0.00,CLR,,0.00,WeatherDisplay:10.37,2013-05-21 13:30:00,
2013-05-21 07:35:00,36.3,30.7,29.45,WSW,248,0.0,0.0,80,0.00,CLR,,0.00,WeatherDisplay:10.37,2013-05-21 13:35:00,
2013-05-21 07:40:00,36.7,31.1,29.46,WSW,248,0.0,0.0,80,0.00,CLR,,0.00,WeatherDisplay:10.37,2013-05-21 13:40:00,
2013-05-21 07:45:00,36.9,31.6,29.46,WNW,292,0.0,0.0,81,0.00,CLR,,0.00,WeatherDisplay:10.37,2013-05-21 13:45:00,
2013-05-21 07:50:00,37.2,31.9,29.46,WSW,248,0.0,0.0,81,0.00,CLR,,0.00,WeatherDisplay:10.37,2013-05-21 13:50:00,
2013-05-21 07:55:00,37.8,32.5,29.46,WSW,248,0.0,0.0,81,0.00,CLR,,0.00,WeatherDisplay:10.37,2013-05-21 13:55:00,
2013-05-21 08:00:00,38.3,33.0,29.44,WSW,248,0.0,0.0,81,0.00,CLR,,0.00,WeatherDisplay:10.37,2013-05-21 14:00:00,
2013-05-21 08:05:00,38.7,33.3,29.44,WSW,248,0.0,0.0,81,0.00,CLR,,0.00,WeatherDisplay:10.37,2013-05-21 14:05:00,
2013-05-21 08:10:00,39.6,34.2,29.44,WSW,248,0.0,0.0,81,0.00,CLR,,0.00,WeatherDisplay:10.37,2013-05-21 14:10:00,
2013-05-21 08:15:00,40.1,35.0,29.44,WSW,248,0.0,0.0,82,0.00,CLR,,0.00,WeatherDisplay:10.37,2013-05-21 14:15:00,
2013-05-21 08:20:00,40.6,35.6,29.43,SW,225,0.0,0.0,82,0.00,CLR,,0.00,WeatherDisplay:10.37,2013-05-21 14:20:00,
2013-05-21 08:25:00,41.2,36.1,29.43,WSW,248,0.0,0.0,82,0.00,CLR,,0.00,WeatherDisplay:10.37,2013-05-21 14:25:00,
2013-05-21 08:30:00,41.9,36.8,29.43,WSW,248,0.0,0.0,82,0.00,CLR,,0.00,WeatherDisplay:10.37,2013-05-21 14:30:00,
2013-05-21 08:35:00,42.3,37.5,29.43,WSW,248,0.0,0.0,83,0.00,CLR,,0.00,WeatherDisplay:10.37,2013-05-21 14:35:00,
2013-05-21 08:40:00,42.8,38.0,29.46,WSW,248,0.0,0.0,83,0.00,CLR,,0.00,WeatherDisplay:10.37,2013-05-21 14:40:00,
2013-05-21 08:45:00,43.3,38.5,29.46,WSW,248,0.0,0.0,83,0.00,CLR,,0.00,WeatherDisplay:10.37,2013-05-21 14:45:00,
2013-05-21 08:50:00,44.1,38.9,29.46,WSW,248,0.0,0.0,82,0.00,CLR,,0.00,WeatherDisplay:10.37,2013-05-21 14:50:00,
2013-05-21 08:55:00,44.4,39.3,29.46,SW,225,0.0,0.0,82,0.00,CLR,,0.00,WeatherDisplay:10.37,2013-05-21 14:55:00,
2013-05-21 09:00:00,45.3,40.1,29.44,SW,225,0.0,0.0,82,0.00,CLR,,0.00,WeatherDisplay:10.37,2013-05-21 15:00:00,
2013-05-21 09:05:00,45.7,40.5,29.44,SW,225,0.0,0.0,82,0.00,CLR,,0.00,WeatherDisplay:10.37,2013-05-21 15:05:00,
2013-05-21 09:10:00,46.6,41.4,29.44,SW,225,0.0,0.0,82,0.00,CLR,,0.00,WeatherDisplay:10.37,2013-05-21 15:10:00,
2013-05-21 09:15:00,46.9,41.4,29.44,WSW,248,0.0,0.0,81,0.00,CLR,,0.00,WeatherDisplay:10.37,2013-05-21 15:15:00,
2013-05-21 09:20:00,47.7,42.1,29.46,WSW,248,0.0,0.0,81,0.00,CLR,,0.00,WeatherDisplay:10.37,2013-05-21 15:20:00,
2013-05-21 09:25:00,47.8,42.0,29.46,WSW,248,0.0,0.0,80,0.00,CLR,,0.00,WeatherDisplay:10.37,2013-05-21 15:25:00,
2013-05-21 09:30:00,48.6,42.3,29.46,SW,225,0.0,0.0,79,0.00,CLR,,0.00,WeatherDisplay:10.37,2013-05-21 15:30:00,
2013-05-21 09:35:00,49.1,42.9,29.46,SW,225,0.0,0.0,79,0.00,CLR,,0.00,WeatherDisplay:10.37,2013-05-21 15:35:00,
2013-05-21 09:40:00,49.8,43.2,29.47,WNW,292,0.0,0.0,78,0.00,CLR,,0.00,WeatherDisplay:10.37,2013-05-21 15:40:00,
2013-05-21 09:45:00,50.0,43.4,29.47,WSW,248,0.0,0.0,78,0.00,CLR,,0.00,WeatherDisplay:10.37,2013-05-21 15:45:00,
2013-05-21 09:50:00,50.5,43.6,29.47,WNW,292,0.0,0.0,77,0.00,CLR,,0.00,WeatherDisplay:10.37,2013-05-21 15:50:00,
2013-05-21 09:55:00,50.9,43.9,29.47,SW,225,0.0,0.0,77,0.00,CLR,,0.00,WeatherDisplay:10.37,2013-05-21 15:55:00,
2013-05-21 10:00:00,51.4,44.1,29.47,WSW,248,0.0,0.0,76,0.00,CLR,,0.00,WeatherDisplay:10.37,2013-05-21 16:00:00,
2013-05-21 10:05:00,51.6,44.0,29.47,WSW,248,0.0,0.0,75,0.00,CLR,,0.00,WeatherDisplay:10.37,2013-05-21 16:05:00,
2013-05-21 10:10:00,53.4,46.0,29.47,WSW,248,0.0,0.0,76,0.00,CLR,,0.00,WeatherDisplay:10.37,2013-05-21 16:10:00,
2013-05-21 10:15:00,54.5,47.1,29.47,West,270,0.0,0.0,76,0.00,CLR,,0.00,WeatherDisplay:10.37,2013-05-21 16:15:00,
2013-05-21 10:20:00,55.4,46.9,29.47,WSW,248,0.0,0.0,73,0.00,CLR,,0.00,WeatherDisplay:10.37,2013-05-21 16:20:00,
2013-05-21 10:25:00,56.3,47.8,29.47,WNW,292,0.0,0.0,73,0.00,CLR,,0.00,WeatherDisplay:10.37,2013-05-21 16:25:00,
2013-05-21 10:30:00,55.9,46.7,29.47,ESE,112,0.0,0.0,71,0.00,CLR,,0.00,WeatherDisplay:10.37,2013-05-21 16:30:00,
2013-05-21 10:35:00,55.9,46.7,29.47,WSW,248,0.0,0.0,71,0.00,CLR,,0.00,WeatherDisplay:10.37,2013-05-21 16:35:00,
2013-05-21 10:40:00,56.1,46.5,29.45,WSW,248,0.0,0.0,70,0.00,CLR,,0.00,WeatherDisplay:10.37,2013-05-21 16:40:00,
2013-05-21 10:45:00,56.3,46.3,29.45,SW,225,0.0,0.0,69,0.00,CLR,,0.00,WeatherDisplay:10.37,2013-05-21 16:45:00,
2013-05-21 10:50:00,56.1,46.1,29.45,West,270,0.0,0.0,69,0.00,CLR,,0.00,WeatherDisplay:10.37,2013-05-21 16:50:00,
2013-05-21 10:55:00,56.3,45.9,29.45,WSW,248,0.0,0.0,68,0.00,CLR,,0.00,WeatherDisplay:10.37,2013-05-21 16:55:00,
2013-05-21 11:00:00,56.5,45.7,29.45,WSW,248,0.0,0.0,67,0.00,CLR,,0.00,WeatherDisplay:10.37,2013-05-21 17:00:00,
2013-05-21 11:05:00,56.5,46.0,29.45,West,270,0.0,0.0,68,0.00,CLR,,0.00,WeatherDisplay:10.37,2013-05-21 17:05:00,
2013-05-21 11:10:00,56.7,45.8,29.45,SSW,202,0.0,0.0,67,0.00,CLR,,0.00,WeatherDisplay:10.37,2013-05-21 17:10:00,
2013-05-21 11:15:00,57.0,46.6,29.45,SW,225,1.1,1.1,68,0.00,CLR,,0.00,WeatherDisplay:10.37,2013-05-21 17:15:00,
2013-05-21 11:20:00,57.0,46.6,29.44,SW,225,0.0,0.3,68,0.00,CLR,,0.00,WeatherDisplay:10.37,2013-05-21 17:20:00,
2013-05-21 11:25:00,57.4,46.9,29.44,NW,315,0.0,0.2,68,0.00,CLR,,0.00,WeatherDisplay:10.37,2013-05-21 17:25:00,
2013-05-21 11:30:00,57.7,46.9,29.44,West,270,0.0,0.0,67,0.00,CLR,,0.00,WeatherDisplay:10.37,2013-05-21 17:30:00,
2013-05-21 11:35:00,57.9,47.0,29.44,East,90,2.3,2.3,67,0.00,CLR,,0.00,WeatherDisplay:10.37,2013-05-21 17:35:00,
2013-05-21 11:40:00,58.5,47.5,29.42,West,270,1.1,1.1,67,0.00,CLR,,0.00,WeatherDisplay:10.37,2013-05-21 17:40:00,
2013-05-21 11:45:00,58.6,47.3,29.42,SSW,202,0.0,0.3,66,0.00,CLR,,0.00,WeatherDisplay:10.37,2013-05-21 17:45:00,
2013-05-21 11:50:00,59.2,47.4,29.42,SE,135,0.0,0.3,65,0.00,CLR,,0.00,WeatherDisplay:10.37,2013-05-21 17:50:00,
2013-05-21 11:55:00,59.4,48.0,29.42,SE,135,3.5,3.5,66,0.00,CLR,,0.00,WeatherDisplay:10.37,2013-05-21 17:55:00,
2013-05-21 12:00:00,59.9,47.7,29.42,SW,225,0.0,0.9,64,0.00,CLR,,0.00,WeatherDisplay:10.37,2013-05-21 18:00:00,
2013-05-21 12:05:00,59.7,47.5,29.42,ESE,112,0.0,0.2,64,0.00,CLR,,0.00,WeatherDisplay:10.37,2013-05-21 18:05:00,
2013-05-21 12:10:00,60.8,48.1,29.42,SW,225,0.0,0.2,63,0.00,CLR,,0.00,WeatherDisplay:10.37,2013-05-21 18:10:00,
2013-05-21 12:15:00,61.0,47.9,29.42,West,270,0.0,0.2,62,0.00,CLR,,0.00,WeatherDisplay:10.37,2013-05-21 18:15:00,
2013-05-21 12:20:00,61.9,48.7,29.41,NW,315,0.0,0.0,62,0.00,CLR,,0.00,WeatherDisplay:10.37,2013-05-21 18:20:00,
2013-05-21 12:25:00,62.2,48.2,29.41,SSW,202,0.0,0.0,60,0.00,CLR,,0.00,WeatherDisplay:10.37,2013-05-21 18:25:00,
2013-05-21 12:30:00,62.2,48.6,29.41,East,90,0.0,0.3,61,0.00,CLR,,0.00,WeatherDisplay:10.37,2013-05-21 18:30:00,
2013-05-21 12:35:00,62.4,48.8,29.41,WSW,248,4.6,4.6,61,0.00,CLR,,0.00,WeatherDisplay:10.37,2013-05-21 18:35:00,
2013-05-21 12:40:00,62.8,48.2,29.38,North,0,0.0,0.5,59,0.00,CLR,,0.00,WeatherDisplay:10.37,2013-05-21 18:40:00,
2013-05-21 12:45:00,63.0,48.4,29.38,SSE,158,0.0,0.0,59,0.00,CLR,,0.00,WeatherDisplay:10.37,2013-05-21 18:45:00,
2013-05-21 12:50:00,63.1,48.6,29.38,NNE,22,0.0,0.0,59,0.00,CLR,,0.00,WeatherDisplay:10.37,2013-05-21 18:50:00,
2013-05-21 12:55:00,63.5,48.9,29.38,SW,225,0.0,0.0,59,0.00,CLR,,0.00,WeatherDisplay:10.37,2013-05-21 18:55:00,
2013-05-21 13:00:00,63.9,48.3,29.35,ENE,68,0.0,0.2,57,0.00,CLR,,0.00,WeatherDisplay:10.37,2013-05-21 19:00:00,
2013-05-21 13:05:00,64.6,49.5,29.35,East,90,1.1,1.1,58,0.00,CLR,,0.00,WeatherDisplay:10.37,2013-05-21 19:05:00,
2013-05-21 13:10:00,64.6,49.5,29.35,SSE,158,0.0,0.6,58,0.00,CLR,,0.00,WeatherDisplay:10.37,2013-05-21 19:10:00,
2013-05-21 13:15:00,64.9,49.3,29.35,West,270,0.0,0.6,57,0.00,CLR,,0.00,WeatherDisplay:10.37,2013-05-21 19:15:00,
2013-05-21 13:20:00,65.7,50.5,29.36,West,270,0.0,0.0,58,0.00,CLR,,0.00,WeatherDisplay:10.37,2013-05-21 19:20:00,
2013-05-21 13:25:00,65.7,50.0,29.36,NE,45,2.3,2.3,57,0.00,CLR,,0.00,WeatherDisplay:10.37,2013-05-21 19:25:00,
2013-05-21 13:30:00,66.0,49.9,29.36,NNW,338,0.0,0.2,56,0.00,CLR,,0.00,WeatherDisplay:10.37,2013-05-21 19:30:00,
2013-05-21 13:35:00,65.8,49.2,29.36,North,0,0.0,0.1,55,0.00,CLR,,0.00,WeatherDisplay:10.37,2013-05-21 19:35:00,
2013-05-21 13:40:00,66.0,48.9,29.36,NW,315,0.0,0.2,54,0.00,CLR,,0.00,WeatherDisplay:10.37,2013-05-21 19:40:00,
2013-05-21 13:45:00,66.4,49.7,29.36,North,0,0.0,0.3,55,0.00,CLR,,0.00,WeatherDisplay:10.37,2013-05-21 19:45:00,
2013-05-21 13:50:00,66.7,49.6,29.36,North,0,0.0,0.3,54,0.00,CLR,,0.00,WeatherDisplay:10.37,2013-05-21 19:50:00,
2013-05-21 13:55:00,67.1,49.9,29.36,WSW,248,2.3,2.3,54,0.00,CLR,,0.00,WeatherDisplay:10.37,2013-05-21 19:55:00,
2013-05-21 14:00:00,67.3,49.6,29.36,NNW,338,2.3,2.3,53,0.00,CLR,,0.00,WeatherDisplay:10.37,2013-05-21 20:00:00,
2013-05-21 14:05:00,67.3,49.6,29.36,NNW,338,2.3,2.3,53,0.00,CLR,,0.00,WeatherDisplay:10.37,2013-05-21 20:05:00,
2013-05-21 14:10:00,67.5,49.2,29.36,North,0,1.1,1.1,52,0.00,CLR,,0.00,WeatherDisplay:10.37,2013-05-21 20:10:00,
2013-05-21 14:15:00,67.5,48.7,29.36,WNW,292,0.0,0.6,51,0.00,CLR,,0.00,WeatherDisplay:10.37,2013-05-21 20:15:00,
2013-05-21 14:20:00,67.5,48.7,29.34,NE,45,0.0,0.3,51,0.00,CLR,,0.00,WeatherDisplay:10.37,2013-05-21 20:20:00,
2013-05-21 14:25:00,67.5,48.7,29.34,NNW,338,0.0,0.5,51,0.00,CLR,,0.00,WeatherDisplay:10.37,2013-05-21 20:25:00,
2013-05-21 14:30:00,67.6,48.9,29.34,NW,315,0.0,0.9,51,0.00,CLR,,0.00,WeatherDisplay:10.37,2013-05-21 20:30:00,
2013-05-21 14:35:00,67.8,49.0,29.34,NNW,338,2.3,2.3,51,0.00,CLR,,0.00,WeatherDisplay:10.37,2013-05-21 20:35:00,
2013-05-21 14:40:00,67.8,48.5,29.34,North,0,0.0,0.6,50,0.00,CLR,,0.00,WeatherDisplay:10.37,2013-05-21 20:40:00,
2013-05-21 14:45:00,67.5,48.2,29.34,North,0,0.0,0.3,50,0.00,CLR,,0.00,WeatherDisplay:10.37,2013-05-21 20:45:00,
2013-05-21 14:50:00,67.5,48.2,29.34,West,270,2.3,2.3,50,0.00,CLR,,0.00,WeatherDisplay:10.37,2013-05-21 20:50:00,
2013-05-21 14:55:00,67.3,47.5,29.34,NE,45,0.0,0.2,49,0.00,CLR,,0.00,WeatherDisplay:10.37,2013-05-21 20:55:00,
2013-05-21 15:00:00,67.5,47.6,29.34,NNW,338,1.1,1.1,49,0.00,CLR,,0.00,WeatherDisplay:10.37,2013-05-21 21:00:00,
2013-05-21 15:05:00,67.3,47.5,29.34,WNW,292,4.6,4.6,49,0.00,CLR,,0.00,WeatherDisplay:10.37,2013-05-21 21:05:00,
2013-05-21 15:10:00,67.1,47.3,29.34,NW,315,2.3,2.3,49,0.00,CLR,,0.00,WeatherDisplay:10.37,2013-05-21 21:10:00,
2013-05-21 15:15:00,66.9,47.1,29.34,NNE,22,1.1,1.1,49,0.00,CLR,,0.00,WeatherDisplay:10.37,2013-05-21 21:15:00,
2013-05-21 15:20:00,67.1,46.7,29.33,NNW,338,1.6,1.6,48,0.00,CLR,,0.00,WeatherDisplay:10.37,2013-05-21 21:20:00,
2013-05-21 15:25:00,67.1,46.2,29.33,NW,315,3.5,3.5,47,0.00,CLR,,0.00,WeatherDisplay:10.37,2013-05-21 21:25:00,
2013-05-21 15:30:00,67.1,46.2,29.33,NE,45,0.0,1.4,47,0.00,CLR,,0.00,WeatherDisplay:10.37,2013-05-21 21:30:00,
2013-05-21 15:35:00,66.9,46.0,29.33,West,270,2.3,2.3,47,0.00,CLR,,0.00,WeatherDisplay:10.37,2013-05-21 21:35:00,
2013-05-21 15:40:00,66.7,46.4,29.31,West,270,0.0,0.3,48,0.00,CLR,,0.00,WeatherDisplay:10.37,2013-05-21 21:40:00,
2013-05-21 15:45:00,66.7,46.4,29.31,WNW,292,0.0,0.0,48,0.00,CLR,,0.00,WeatherDisplay:10.37,2013-05-21 21:45:00,
2013-05-21 15:50:00,67.1,46.2,29.31,WNW,292,0.0,0.1,47,0.00,CLR,,0.00,WeatherDisplay:10.37,2013-05-21 21:50:00,
2013-05-21 15:55:00,67.8,46.8,29.31,NNW,338,0.0,0.1,47,0.00,CLR,,0.00,WeatherDisplay:10.37,2013-05-21 21:55:00,
2013-05-21 16:00:00,68.2,46.6,29.30,North,0,0.0,0.1,46,0.00,CLR,,0.00,WeatherDisplay:10.37,2013-05-21 22:00:00,
2013-05-21 16:05:00,68.7,46.5,29.30,WNW,292,0.0,0.2,45,0.00,CLR,,0.00,WeatherDisplay:10.37,2013-05-21 22:05:00,
2013-05-21 16:10:00,68.7,46.5,29.30,NNW,338,2.3,2.3,45,0.00,CLR,,0.00,WeatherDisplay:10.37,2013-05-21 22:10:00,
2013-05-21 16:15:00,69.3,47.0,29.30,NW,315,4.6,4.6,45,0.00,CLR,,0.00,WeatherDisplay:10.37,2013-05-21 22:15:00,
2013-05-21 16:20:00,69.6,47.3,29.30,NE,45,0.0,0.7,45,0.00,CLR,,0.00,WeatherDisplay:10.37,2013-05-21 22:20:00,
2013-05-21 16:25:00,69.4,46.0,29.30,NNW,338,0.0,0.3,43,0.00,CLR,,0.00,WeatherDisplay:10.37,2013-05-21 22:25:00,
2013-05-21 16:30:00,69.3,46.4,29.30,North,0,1.1,1.1,44,0.00,CLR,,0.00,WeatherDisplay:10.37,2013-05-21 22:30:00,
2013-05-21 16:35:00,69.3,46.4,29.30,ENE,68,3.5,3.5,44,0.00,CLR,,0.00,WeatherDisplay:10.37,2013-05-21 22:35:00,
2013-05-21 16:40:00,68.9,46.1,29.25,West,270,0.0,0.3,44,0.00,CLR,,0.00,WeatherDisplay:10.37,2013-05-21 22:40:00,
2013-05-21 16:45:00,68.7,45.9,29.25,NW,315,0.0,0.6,44,0.00,CLR,,0.00,WeatherDisplay:10.37,2013-05-21 22:45:00,
2013-05-21 16:50:00,68.9,46.1,29.25,North,0,0.0,0.7,44,0.00,CLR,,0.00,WeatherDisplay:10.37,2013-05-21 22:50:00,
2013-05-21 16:55:00,69.6,46.1,29.25,NNE,22,0.0,0.3,43,0.00,CLR,,0.00,WeatherDisplay:10.37,2013-05-21 22:55:00,
2013-05-21 17:00:00,69.6,46.1,29.26,NW,315,0.0,0.5,43,0.00,CLR,,0.00,WeatherDisplay:10.37,2013-05-21 23:00:00,
2013-05-21 17:05:00,70.0,46.4,29.26,NNW,338,0.0,0.6,43,0.00,CLR,,0.00,WeatherDisplay:10.37,2013-05-21 23:05:00,
2013-05-21 17:10:00,70.0,46.4,29.26,NNW,338,2.3,2.3,43,0.00,CLR,,0.00,WeatherDisplay:10.37,2013-05-21 23:10:00,
2013-05-21 17:15:00,70.0,45.8,29.26,WNW,292,1.1,1.1,42,0.00,CLR,,0.00,WeatherDisplay:10.37,2013-05-21 23:15:00,
2013-05-21 17:20:00,69.8,45.7,29.25,NW,315,0.0,0.0,42,0.00,CLR,,0.00,WeatherDisplay:10.37,2013-05-21 23:20:00,
2013-05-21 17:25:00,69.8,46.3,29.25,NNW,338,2.3,2.3,43,0.00,CLR,,0.00,WeatherDisplay:10.37,2013-05-21 23:25:00,
2013-05-21 17:30:00,70.0,46.4,29.25,NNW,338,0.0,0.1,43,0.00,CLR,,0.00,WeatherDisplay:10.37,2013-05-21 23:30:00,
2013-05-21 17:35:00,70.0,46.4,29.25,NE,45,2.2,2.2,43,0.00,CLR,,0.00,WeatherDisplay:10.37,2013-05-21 23:35:00,
2013-05-21 17:40:00,70.0,46.4,29.25,NE,45,2.3,2.3,43,0.00,CLR,,0.00,WeatherDisplay:10.37,2013-05-21 23:40:00,
2013-05-21 17:45:00,70.3,46.8,29.25,NNW,338,0.0,0.3,43,0.00,CLR,,0.00,WeatherDisplay:10.37,2013-05-21 23:45:00,
2013-05-21 17:50:00,70.3,46.8,29.25,WSW,248,0.0,0.2,43,0.00,CLR,,0.00,WeatherDisplay:10.37,2013-05-21 23:50:00,
2013-05-21 17:55:00,70.3,46.2,29.25,NNE,22,3.5,3.5,42,0.00,CLR,,0.00,WeatherDisplay:10.37,2013-05-21 23:55:00,
2013-05-21 18:00:00,70.0,45.8,29.25,WNW,292,2.3,2.3,42,0.00,CLR,,0.00,WeatherDisplay:10.37,2013-05-22 00:00:00,
2013-05-21 18:05:00,69.8,46.3,29.25,NW,315,0.0,0.2,43,0.00,CLR,,0.00,WeatherDisplay:10.37,2013-05-22 00:05:00,
2013-05-21 18:10:00,69.8,46.3,29.25,NE,45,0.0,0.1,43,0.00,CLR,,0.00,WeatherDisplay:10.37,2013-05-22 00:10:00,
2013-05-21 18:16:00,70.0,46.4,29.25,East,90,0.0,0.3,43,0.00,CLR,,0.00,WeatherDisplay:10.37,2013-05-22 00:16:00,
2013-05-21 18:21:00,69.6,45.5,29.20,North,0,0.0,0.3,42,0.00,CLR,,0.00,WeatherDisplay:10.37,2013-05-22 00:21:00,
2013-05-21 18:26:00,68.9,45.5,29.20,North,0,1.1,1.1,43,0.00,CLR,,0.00,WeatherDisplay:10.37,2013-05-22 00:26:00,
2013-05-21 18:31:00,68.9,45.5,29.20,East,90,0.0,0.2,43,0.00,CLR,,0.00,WeatherDisplay:10.37,2013-05-22 00:31:00,
2013-05-21 18:36:00,68.2,44.8,29.20,NNW,338,0.0,0.1,43,0.00,CLR,,0.00,WeatherDisplay:10.37,2013-05-22 00:36:00,
2013-05-21 18:41:00,68.2,44.8,29.18,North,0,0.0,0.1,43,0.00,CLR,,0.00,WeatherDisplay:10.37,2013-05-22 00:41:00,
2013-05-21 18:46:00,67.8,45.1,29.18,North,0,0.0,0.1,44,0.00,CLR,,0.00,WeatherDisplay:10.37,2013-05-22 00:46:00,
2013-05-21 18:51:00,67.3,44.6,29.18,SE,135,0.0,0.0,44,0.00,CLR,,0.00,WeatherDisplay:10.37,2013-05-22 00:51:00,
2013-05-21 18:56:00,66.9,44.3,29.18,NW,315,0.0,0.0,44,0.00,CLR,,0.00,WeatherDisplay:10.37,2013-05-22 00:56:00,
2013-05-21 19:01:00,67.1,45.0,29.18,North,0,0.0,0.0,45,0.00,CLR,,0.00,WeatherDisplay:10.37,2013-05-22 01:01:00,
2013-05-21 19:06:00,66.4,44.4,29.18,East,90,3.1,3.1,45,0.00,CLR,,0.00,WeatherDisplay:10.37,2013-05-22 01:06:00,
2013-05-21 19:11:00,65.8,43.9,29.18,East,90,2.3,2.3,45,0.00,CLR,,0.00,WeatherDisplay:10.37,2013-05-22 01:11:00,
2013-05-21 19:16:00,65.3,44.0,29.20,NE,45,0.0,0.8,46,0.00,CLR,,0.00,WeatherDisplay:10.37,2013-05-22 01:16:00,
2013-05-21 19:21:00,65.3,44.0,29.20,NE,45,0.0,0.8,46,0.00,CLR,,0.00,WeatherDisplay:10.37,2013-05-22 01:21:00,
2013-05-21 19:26:00,64.2,44.1,29.20,West,270,0.0,0.3,48,0.00,CLR,,0.00,WeatherDisplay:10.37,2013-05-22 01:26:00,
2013-05-21 19:31:00,63.7,43.6,29.20,North,0,0.0,0.2,48,0.00,CLR,,0.00,WeatherDisplay:10.37,2013-05-22 01:31:00,
2013-05-21 19:36:00,63.1,43.7,29.20,NNW,338,0.0,0.0,49,0.00,CLR,,0.00,WeatherDisplay:10.37,2013-05-22 01:36:00,
2013-05-21 19:41:00,63.0,43.5,29.20,NNW,338,0.0,0.0,49,0.00,CLR,,0.00,WeatherDisplay:10.37,2013-05-22 01:41:00,
2013-05-21 19:46:00,63.0,44.0,29.20,NNE,22,0.0,0.0,50,0.00,CLR,,0.00,WeatherDisplay:10.37,2013-05-22 01:46:00,
2013-05-21 19:51:00,63.0,44.0,29.20,ENE,68,2.3,2.3,50,0.00,CLR,,0.00,WeatherDisplay:10.37,2013-05-22 01:51:00,
2013-05-21 19:56:00,62.8,43.9,29.18,East,90,1.1,1.1,50,0.00,CLR,,0.00,WeatherDisplay:10.37,2013-05-22 01:56:00,
2013-05-21 20:01:00,62.2,43.9,29.18,East,90,2.3,2.3,51,0.00,CLR,,0.00,WeatherDisplay:10.37,2013-05-22 02:01:00,
2013-05-21 20:06:00,62.1,43.7,29.18,South,180,1.1,1.4,51,0.00,CLR,,0.00,WeatherDisplay:10.37,2013-05-22 02:06:00,
2013-05-21 20:11:00,61.7,43.4,29.18,SSW,202,0.0,1.1,51,0.00,CLR,,0.00,WeatherDisplay:10.37,2013-05-22 02:11:00,
2013-05-21 20:16:00,61.5,43.2,29.18,NNE,22,0.0,0.0,51,0.00,CLR,,0.00,WeatherDisplay:10.37,2013-05-22 02:16:00,
2013-05-21 20:21:00,61.3,43.6,29.18,SSE,158,0.0,0.0,52,0.00,CLR,,0.00,WeatherDisplay:10.37,2013-05-22 02:21:00,
2013-05-21 20:26:00,61.2,43.4,29.18,North,0,0.0,0.0,52,0.00,CLR,,0.00,WeatherDisplay:10.37,2013-05-22 02:26:00,
2013-05-21 20:31:00,60.8,43.1,29.18,NE,45,0.0,0.0,52,0.00,CLR,,0.00,WeatherDisplay:10.37,2013-05-22 02:31:00,
2013-05-21 20:36:00,60.6,43.4,29.18,North,0,0.0,0.0,53,0.00,CLR,,0.00,WeatherDisplay:10.37,2013-05-22 02:36:00,
2013-05-21 20:41:00,60.3,43.1,29.18,North,0,0.0,0.0,53,0.00,CLR,,0.00,WeatherDisplay:10.37,2013-05-22 02:41:00,
2013-05-21 20:46:00,59.9,42.7,29.18,WSW,248,0.0,0.1,53,0.00,CLR,,0.00,WeatherDisplay:10.37,2013-05-22 02:46:00,
2013-05-21 20:51:00,59.9,42.2,29.18,SE,135,0.0,0.3,52,0.00,CLR,,0.00,WeatherDisplay:10.37,2013-05-22 02:51:00,
2013-05-21 20:56:00,59.5,41.9,29.20,NW,315,0.0,1.0,52,0.00,CLR,,0.00,WeatherDisplay:10.37,2013-05-22 02:56:00,
2013-05-21 21:01:00,59.4,42.2,29.20,East,90,0.0,0.8,53,0.00,CLR,,0.00,WeatherDisplay:10.37,2013-05-22 03:01:00,
2013-05-21 21:06:00,59.2,42.0,29.20,SE,135,0.0,0.1,53,0.00,CLR,,0.00,WeatherDisplay:10.37,2013-05-22 03:06:00,
2013-05-21 21:11:00,58.8,41.7,29.20,NE,45,3.5,3.5,53,0.00,CLR,,0.00,WeatherDisplay:10.37,2013-05-22 03:11:00,
2013-05-21 21:16:00,58.5,41.9,29.21,East,90,4.7,4.7,54,0.00,CLR,,0.00,WeatherDisplay:10.37,2013-05-22 03:16:00,
2013-05-21 21:21:00,58.3,41.7,29.21,NNE,22,0.0,0.3,54,0.00,CLR,,0.00,WeatherDisplay:10.37,2013-05-22 03:21:00,
2013-05-21 21:26:00,57.9,41.8,29.21,WSW,248,0.0,0.2,55,0.00,CLR,,0.00,WeatherDisplay:10.37,2013-05-22 03:26:00,
2013-05-21 21:31:00,57.6,41.5,29.21,West,270,0.0,0.0,55,0.00,CLR,,0.00,WeatherDisplay:10.37,2013-05-22 03:31:00,
2013-05-21 21:36:00,57.4,41.3,29.20,West,270,0.0,0.0,55,0.00,CLR,,0.00,WeatherDisplay:10.37,2013-05-22 03:36:00,
2013-05-21 21:41:00,57.4,41.8,29.20,SE,135,0.0,0.0,56,0.00,CLR,,0.00,WeatherDisplay:10.37,2013-05-22 03:41:00,
2013-05-21 21:46:00,56.7,41.1,29.20,NE,45,2.3,2.3,56,0.00,CLR,,0.00,WeatherDisplay:10.37,2013-05-22 03:46:00,
2013-05-21 21:51:00,56.5,41.0,29.20,East,90,0.0,0.3,56,0.00,CLR,,0.00,WeatherDisplay:10.37,2013-05-22 03:51:00,
2013-05-21 21:56:00,55.9,40.9,29.19,ESE,112,0.0,0.0,57,0.00,CLR,,0.00,WeatherDisplay:10.37,2013-05-22 03:56:00,
2013-05-21 22:01:00,55.6,40.6,29.19,East,90,2.3,2.3,57,0.00,CLR,,0.00,WeatherDisplay:10.37,2013-05-22 04:01:00,
2013-05-21 22:02:00,55.6,40.6,29.19,North,0,2.3,2.3,57,0.00,CLR,,0.00,WeatherDisplay:10.37,2013-05-22 04:02:00,
2013-05-21 22:03:00,55.6,40.6,29.19,North,0,0.0,0.5,57,0.00,CLR,,0.00,WeatherDisplay:10.37,2013-05-22 04:03:00,
2013-05-21 22:05:00,55.0,40.5,29.19,NNE,22,0.0,0.5,58,0.00,CLR,,0.00,WeatherDisplay:10.37,2013-05-22 04:05:00,
2013-05-21 22:10:00,54.9,40.4,29.19,NNE,22,0.0,0.2,58,0.00,CLR,,0.00,WeatherDisplay:10.37,2013-05-22 04:10:00,
2013-05-21 22:15:00,54.5,40.0,29.19,NNE,22,0.0,0.0,58,0.00,CLR,,0.00,WeatherDisplay:10.37,2013-05-22 04:15:00,
2013-05-21 22:20:00,54.0,39.9,29.19,ESE,112,0.0,0.0,59,0.00,CLR,,0.00,WeatherDisplay:10.37,2013-05-22 04:20:00,
2013-05-21 22:25:00,53.6,39.6,29.19,ENE,68,1.1,1.1,59,0.00,CLR,,0.00,WeatherDisplay:10.37,2013-05-22 04:25:00,
2013-05-21 22:30:00,53.4,39.9,29.19,ENE,68,0.0,0.2,60,0.00,CLR,,0.00,WeatherDisplay:10.37,2013-05-22 04:30:00,
2013-05-21 22:35:00,52.9,39.4,29.19,East,90,2.3,2.3,60,0.00,CLR,,0.00,WeatherDisplay:10.37,2013-05-22 04:35:00,
2013-05-21 22:40:00,52.7,39.2,29.19,East,90,2.3,2.3,60,0.00,CLR,,0.00,WeatherDisplay:10.37,2013-05-22 04:40:00,
2013-05-21 22:45:00,52.3,39.3,29.19,SSE,158,1.1,1.1,61,0.00,CLR,,0.00,WeatherDisplay:10.37,2013-05-22 04:45:00,
2013-05-21 22:50:00,51.8,38.8,29.19,NE,45,0.0,0.3,61,0.00,CLR,,0.00,WeatherDisplay:10.37,2013-05-22 04:50:00,
2013-05-21 22:55:00,51.8,38.8,29.19,SSE,158,0.0,0.0,61,0.00,CLR,,0.00,WeatherDisplay:10.37,2013-05-22 04:55:00,
2013-05-21 23:00:00,51.3,38.7,29.19,WNW,292,0.0,0.2,62,0.00,CLR,,0.00,WeatherDisplay:10.37,2013-05-22 05:00:00,
2013-05-21 23:05:00,51.3,38.7,29.19,ENE,68,0.0,0.2,62,0.00,CLR,,0.00,WeatherDisplay:10.37,2013-05-22 05:05:00,
2013-05-21 23:10:00,50.9,38.3,29.19,NE,45,0.0,0.1,62,0.00,CLR,,0.00,WeatherDisplay:10.37,2013-05-22 05:10:00,
2013-05-21 23:15:00,50.5,38.4,29.19,North,0,0.0,0.1,63,0.00,CLR,,0.00,WeatherDisplay:10.37,2013-05-22 05:15:00,
2013-05-21 23:20:00,50.5,38.4,29.19,WSW,248,0.0,0.2,63,0.00,CLR,,0.00,WeatherDisplay:10.37,2013-05-22 05:20:00,
2013-05-21 23:25:00,50.2,38.1,29.19,ESE,112,0.0,0.2,63,0.00,CLR,,0.00,WeatherDisplay:10.37,2013-05-22 05:25:00,
2013-05-21 23:30:00,49.8,38.1,29.19,ENE,68,0.0,0.0,64,0.00,CLR,,0.00,WeatherDisplay:10.37,2013-05-22 05:30:00,
2013-05-21 23:35:00,49.8,38.1,29.19,SE,135,0.0,0.0,64,0.00,CLR,,0.00,WeatherDisplay:10.37,2013-05-22 05:35:00,
2013-05-21 23:40:00,49.5,37.8,29.18,WSW,248,0.0,0.0,64,0.00,CLR,,0.00,WeatherDisplay:10.37,2013-05-22 05:40:00,
2013-05-21 23:45:00,49.1,37.4,29.18,ENE,68,4.6,4.6,64,0.00,CLR,,0.00,WeatherDisplay:10.37,2013-05-22 05:45:00,
2013-05-21 23:50:00,48.7,37.1,29.18,SW,225,0.0,0.2,64,0.00,CLR,,0.00,WeatherDisplay:10.37,2013-05-22 05:50:00,
2013-05-21 23:55:00,48.6,36.9,29.18,North,0,0.0,0.0,64,0.00,CLR,,0.00,WeatherDisplay:10.37,2013-05-22 05:55:00,